This is the latest recevied weather packets stored in our database for station/object W1BKW. If no packets are shown the sender has not sent any weather packets the latest 10 day(s).
| Time | Temp. | Humidity | Pressure | Rain* | Wind** | Luminosity | Snow |
|---|---|---|---|---|---|---|---|
| 1777735204 | 6.11° C | 84% | 1012.2 hPa | 0 mm | - | 70 W/m² | - |
| 1777734301 | 6.11° C | 86% | 1012.1 hPa | 0 mm | - | 72 W/m² | - |
| 1777733396 | 6.11° C | 85% | 1012.5 hPa | 0 mm | - | 66 W/m² | - |
| 1777732492 | 6.67° C | 82% | 1012.7 hPa | 0 mm | - | 49 W/m² | - |
| 1777731589 | 6.67° C | 81% | 1012.5 hPa | 0 mm | - | 51 W/m² | - |
| 1777730689 | 6.67° C | 81% | 1012.8 hPa | 0 mm | - | 39 W/m² | - |
| 1777729783 | 6.67° C | 81% | 1013.1 hPa | 0 mm | - | 51 W/m² | - |
| 1777728879 | 6.11° C | 82% | 1012.5 hPa | 0 mm | - | 65 W/m² | - |
| 1777727977 | 6.11° C | 80% | 1012.7 hPa | 0 mm | - | 53 W/m² | - |
| 1777727074 | 6.11° C | 79% | 1012.8 hPa | 0 mm | - | 49 W/m² | - |
| 1777726171 | 6.11° C | 78% | 1012.9 hPa | 0 mm | - | 40 W/m² | - |
| 1777725268 | 6.11° C | 73% | 1012.9 hPa | 0 mm | - | 39 W/m² | - |
| 1777724366 | 5° C | 81% | 1012.7 hPa | 0 mm | - | 90 W/m² | - |
| 1777723462 | 4.44° C | 82% | 1013 hPa | 0 mm | - | 48 W/m² | - |
| 1777722558 | 4.44° C | 86% | 1012.7 hPa | 0 mm | - | 66 W/m² | - |
| 1777721655 | 4.44° C | 84% | 1012.6 hPa | 0 mm | - | 46 W/m² | - |
| 1777720754 | 3.89° C | 84% | 1012.7 hPa | 0 mm | - | 27 W/m² | - |
| 1777719852 | 3.89° C | 86% | 1012.9 hPa | 0 mm | - | 27 W/m² | - |
| 1777718949 | 3.33° C | 89% | 1012.7 hPa | 0 mm | - | 37 W/m² | - |
| 1777718047 | 2.78° C | 89% | 1012.8 hPa | 0 mm | - | 12 W/m² | - |
| 1777717144 | 2.78° C | 92% | 1012.5 hPa | 0 mm | - | 8 W/m² | - |
| 1777716239 | 2.22° C | 89% | 1012.1 hPa | 0 mm | - | 5 W/m² | - |
| 1777715337 | 2.22° C | 91% | 1011.7 hPa | 0 mm | - | 0 W/m² | - |
| 1777714435 | 1.67° C | 92% | 1011.4 hPa | 0 mm | - | 0 W/m² | - |
| 1777713534 | 2.22° C | 91% | 1011.5 hPa | 0 mm | - | 0 W/m² | - |
* Rain latest hour (hover to see other rain measurements)
** Current wind speed in m/s (hover to see current wind gust speed)